Regional Weather Roundup
Issued by NWS Newport/Morehead, NC

Current Version | Previous Version | Graphics & Text | Print | Product List | Glossary Off
Versions: 1 2 3 4 5 6 7 8 9 10 11 12 13 14 15 16 17 18 19 20 21 22 23 24 25 26 27 28 29 30 31 32 33 34 35 36 37 38 39 40 41 42 43 44 45 46 47 48 49 50

000
ASUS42 KMHX 241125
RWRMHX
WEATHER ROUNDUP FOR EASTERN NORTH CAROLINA
NATIONAL WEATHER SERVICE NEWPORT/MOREHEAD CITY NC
700 AM EDT WED MAY 24 2017

NOTE: "FAIR" INDICATES FEW OR NO CLOUDS BELOW 12,000 FEET
WITH NO SIGNIFICANT WEATHER AND/OR OBSTRUCTIONS TO VISIBILITY

NCZ015>017-031-032-045>047-102-103-241200-
NORTH COAST

CITY           SKY/WX    TMP DP  RH WIND       PRES   REMARKS
EDENTON        CLOUDY    65  63  95 CALM      29.68R FOG
ELIZABETH CITY CLOUDY    63  63 100 N7        29.67R
KITTY HAWK     CLOUDY    65  65 100 CALM      29.65R
MANTEO         CLOUDY    68  67  95 NW5       29.66S

$$

NCZ045>047-081-094-103-104-241200-
CENTRAL COAST

CITY           SKY/WX    TMP DP  RH WIND       PRES   REMARKS
FRISCO         NOT AVBL

$$

NCZ095-097-098-100-101-241200-
SOUTHERN COAST

CITY           SKY/WX    TMP DP  RH WIND       PRES   REMARKS
BEAUFORT       CLOUDY    71  69  93 W8        29.68R
CEDAR ISLAND   NOT AVBL
JACKSONVILLE   NOT AVBL
PINEY ISLAND   CLOUDY   N/A N/A N/A W7        29.67
WILMINGTON     CLOUDY    69  68  96 SW6       29.68R


$$

NCZ011>013-027>030-043-044-078>080-089-090>093-098-241200-
COASTAL PLAIN

CITY           SKY/WX    TMP DP  RH WIND       PRES   REMARKS
AHOSKIE        DRIZZLE   61  61  99 N3        29.68R
CLINTON        PTCLDY    66  66 100 CALM      29.68S
ELIZABETHTOWN  CLOUDY    68  68 100 CALM      29.68S
GOLDSBORO      CLOUDY    66  66 100 W3        29.65F
GREENVILLE     CLOUDY    68  66  94 CALM      29.70R
HAVELOCK       CLOUDY    69  67  93 SW5       29.68S
KENANSVILLE    PTSUNNY   66  64  94 CALM      29.67F FOG
KINSTON        CLOUDY    66  66 100 CALM      29.68R
NEW BERN       CLOUDY    68  68 100 SW3       29.69R
RICHLANDS      PTSUNNY   68  66  94 CALM      29.68S
ROCKY MOUNT    FOG       64  64 100 CALM      29.67S VSB 3/4
WASHINGTON     CLOUDY    67  66  98 W3        29.67R
WHITEVILLE     MOCLDY    68  67  96 CALM      29.68R

$$

AMZ130-135-150-152-154-156-158-170-250-252-270-ANZ085-086-088-633-658-670-241200-
MARINE OBSERVATIONS

STATION/POSITION TIME  TEMP    WIND        PRES    WAVE   SWELL
                       AIR SEA DIR/SP/G            HT/PER HT/PER
                 (UTC) (F)     (DEG/KT/KT) (MB)    (FT/S) (FT/S)
CHESAPEAKE LIGHT NOT AVBL
64 E VA BEACH    1050   62 64  320/  8/ 10 1004.4    5/ 7   5/ 7
DUCK             1100   62 62  360/ 12/ 13 1003.9
2 E DUCK         1100      64                N/A     3/ 5   2/11
OREGON INLET     1100   69 71  260/  6/  9 1004.0
13E OREGON INLT  1048      65                N/A     5/ 7   5/ 7
HATTERAS CG      1100   72 73  260/ 11/ 15 1004.3
DIAMOND BUOY     1050   74 74  240/ 16/ 17 1004.2    6/ 5   2/11
CAPE LOOKOUT     1100   71     280/ 11/ 12 1004.6
BEAUFORT LAB     1100   70 72  290/  3/  7 1004.2
30 SE NEW RVR IN 1108   73 76  290/ 14/ 16 1004.7
30 SE NEW RVR IN 1043      76                N/A     7/ 8   2/12
27 SE WRIGHTSVLE 1108   72 75  240/ 16/ 21 1004.4
5 SE WRIGHTSVLE  1108   71 74  270/ 10/ 17 1005.0
225 S CAPE HAT   1050   77 76  200/ 21/ 27 1010.0    8/ 6   2/11
41 SE CHARLESTON 1110   76 76  220/ 25/ 33 1005.8

$$




USA.gov is the U.S. government's official web portal to all federal, state and local government web resources and services.